Weather in Rybnoye

Russia / Krasnoyarsk Krai     55°46′52″N   94°47′46″E
temp.,
°C
wind,
m/s
gust,
m/s
humid.,
%
clouds,
%
prec.,
mm/h
press.,
hPa
HPBL,
m
25 january, mon
mon2501:00−17wsw2386100 0.0 103662
04:00−22wnw4897100 0.1 1036189
07:00−23nw61094100 0.2 1039376
10:00−26nw5994100 0.1 1042485
13:00−28wnw5989100 0.1 1045495
16:00−29nw3690100 0.0 1046397
19:00−32nw1195100 0.0 104719
22:00−33ene1198100 0.1 104619
26 january, tue
tue2601:00−33e1298100 0.1 104528
04:00−32e2298100 0.1 104449
07:00−32ene2298100 0.1 104337
10:00−31ne2298100 0.1 1042105
13:00−30nne2396100 0.1 1041241
16:00−30nne2297100 0.1 1042176
19:00−31ne1298100 0.1 104427
22:00−35ene1110098 0.0 104519
27 january, wed
wed2701:00−37se1110083 0.0 104619
04:00−37se1210028 0.0 104519
07:00−36se2210022 0.0 104419
10:00−34se239472 0.0 104133
13:00−27se358684 0.0 1035178
16:00−21se4796100 0.1 1030209
19:00−18sse4797100 0.5 1026198
22:00−11sw61494100 1.1 1023855
28 january, thu
thu2801:00−10wsw71494100 2.6 10201030
04:00−8wsw91691100 1.4 1019963
07:00−7wsw91783100 1.7 1020975
10:00−9wnw71292100 0.7 1022849
13:00−9wnw71292100 1.1 1024901
16:00−8wnw61194100 0.9 1023758
19:00−8w3996100 2.3 1022542
22:00−7wsw51395100 1.3 1018897
29 january, fri
fri2901:00−6wsw81593100 3.1 10141157
04:00−6w91692100 1.6 10111121
07:00−6w71393100 2.8 10111039
10:00−7w81391100 0.6 1012986
13:00−6w61094100 1.0 1012850
16:00−6w4896100 1.8 1012624
19:00−6wsw81492100 3.4 1012971
22:00−6wsw81685100 0.6 1011990